Weather in Garabekewül

Turkmenistan     38°28′54″N   64°09′07″E
temp.,
°C
wind,
m/s
gust,
m/s
humid.,
%
clouds,
%
prec.,
mm/h
press.,
hPa
HPBL,
m
15 may, sat
sat1523:00+28ne711180 0.0 1009338
02:00+24nne814270 0.0 1009533
05:00+23nne813290 0.0 1009554
08:00+24nne913230 0.0 1010750
11:00+29n88140 0.0 10101215
14:00+31n87100 0.0 10091694
17:00+32n7790 0.0 10081931
20:00+30nnw46120 0.0 1007130
16 may, sun
sun1623:00+27nnw57170 0.0 1008103
02:00+25n58250 0.0 1007141
05:00+22n58280 0.0 1008165
08:00+24n66240 0.0 1010342
11:00+29nw44170 0.0 1010830
14:00+32wnw43120 0.0 10091776
17:00+33wnw4390 0.0 10072261
20:00+31w2290 0.0 100823
17 may, mon
mon1723:00+28wnw33110 0.0 100827
02:00+26n33180 0.0 100818
05:00+24nnw44210 0.0 100935
08:00+26nnw22190 0.0 1010227
11:00+31w33130 0.0 10101318
14:00+34w4483 0.0 10092502
17:00+34wnw33686 0.0 10082606
20:00+31wsw11948 0.0 100812
18 may, tue
tue1823:00+30sw221168 0.0 100820
02:00+27nw33110 0.0 100718
05:00+25nw33150 0.0 100722
08:00+29nnw45130 0.0 1008246
11:00+33nw3390 0.0 10082365
14:00+35nw3370 0.0 10073292
17:00+36wnw3350 0.0 10053540
20:00+33wnw4450 0.0 100666
19 may, wed
wed1923:00+30wnw3360 0.0 100626
02:00+28nnw3470 0.0 100524
05:00+26nnw33130 0.0 100514
08:00+30nnw12120 0.0 1007159
11:00+34wnw2160 0.0 10073197
14:00+36n2160 0.0 10053546
17:00+37nne3368 0.0 10043728
20:00+35nne576100 0.0 1005198